Location: Pedro
(43.9050°N, 104.3408°W)
Time: 03:14:01
(UTC+00:00)

X-37B - Pass Details

Date: 27 January 2022
Orbit: 329 x 342 km, 45.0° (Epoch: 18 May)

Event Time Altitude Azimuth Distance (km) Brightness Sun altitude
Rises 02:25:56 0° 243° (WSW) 2,108 5.3 -26.2°
Reaches altitude 10° 02:27:58 10° 239° (WSW) 1,270 3.9 -26.6°
Enters shadow 02:28:11 12° 238° (WSW) 1,181 3.7 -26.6°
